EVA665 PANC-CYYC

Flight info

Callsign EVA665
Flight time N/A
Altitude 33000
Route NOEND4 NOEND DCT YAK J541 BERGS DCT MUXAT DCT HOWSE DCT AMUNO ADVOX9
Aircraft B77L/H-SDE1E2E3FGHIJ2J3J4J5M1RWXY/LB1D1

Departure

Time N/A
Airport Ted Stevens Anchorage International Airport (PANC)

Arrival

Time 2026-04-27 21:06
Airport Calgary International Airport (CYYC)
Time Latitude Longitude Altitude Speed Heading
2026-04-27 20:38 52.88373 -117.20170 35008 ft 494 kts 126°
2026-04-27 20:39 52.84224 -117.11104 35006 ft 494 kts 126°
2026-04-27 20:39 52.80077 -117.02074 35014 ft 493 kts 126°
2026-04-27 20:40 52.75919 -116.93053 35019 ft 493 kts 126°
2026-04-27 20:40 52.71761 -116.84062 35004 ft 493 kts 126°
2026-04-27 20:41 52.68298 -116.76599 35007 ft 493 kts 126°
2026-04-27 20:41 52.63445 -116.66177 35001 ft 493 kts 126°
2026-04-27 20:42 52.59942 -116.58681 34998 ft 492 kts 126°
2026-04-27 20:42 52.55756 -116.49752 35001 ft 492 kts 126°
2026-04-27 20:43 52.51569 -116.40853 34984 ft 493 kts 126°
2026-04-27 20:43 52.47395 -116.32012 34974 ft 493 kts 126°
2026-04-27 20:44 52.43194 -116.23144 34926 ft 488 kts 126°
2026-04-27 20:44 52.41126 -116.18792 34628 ft 481 kts 126°
2026-04-27 20:44 52.39074 -116.14481 34030 ft 480 kts 126°
2026-04-27 20:45 52.37010 -116.10150 33074 ft 485 kts 126°
2026-04-27 20:45 52.34925 -116.05779 32188 ft 488 kts 126°
2026-04-27 20:45 52.32833 -116.01406 31496 ft 488 kts 126°
2026-04-27 20:45 52.30745 -115.97047 30969 ft 484 kts 126°
2026-04-27 20:46 52.28683 -115.92753 30495 ft 479 kts 126°
2026-04-27 20:46 52.26626 -115.88475 29999 ft 475 kts 125°
2026-04-27 20:46 52.24593 -115.84255 29382 ft 472 kts 125°
2026-04-27 20:46 52.22597 -115.80115 28860 ft 467 kts 125°
2026-04-27 20:47 52.20592 -115.75963 28353 ft 463 kts 125°
2026-04-27 20:47 52.18606 -115.71859 27822 ft 459 kts 126°
2026-04-27 20:47 52.16637 -115.67798 27333 ft 455 kts 126°
2026-04-27 20:47 52.14681 -115.63767 26830 ft 452 kts 126°
2026-04-27 20:48 52.12736 -115.59766 26325 ft 449 kts 126°
2026-04-27 20:48 52.10804 -115.55800 25840 ft 446 kts 126°
2026-04-27 20:48 52.08887 -115.51867 25368 ft 442 kts 126°
2026-04-27 20:48 52.06982 -115.47966 24924 ft 439 kts 126°
2026-04-27 20:49 52.05088 -115.44091 24464 ft 436 kts 126°
2026-04-27 20:49 52.03206 -115.40250 23992 ft 433 kts 126°
2026-04-27 20:49 52.01334 -115.36434 23557 ft 430 kts 126°
2026-04-27 20:49 51.99474 -115.32649 23034 ft 427 kts 126°
2026-04-27 20:50 51.97626 -115.28891 22521 ft 424 kts 126°
2026-04-27 20:50 51.95789 -115.25162 22025 ft 422 kts 127°
2026-04-27 20:50 51.93962 -115.21461 21562 ft 419 kts 127°
2026-04-27 20:50 51.92170 -115.17837 21114 ft 416 kts 127°
2026-04-27 20:51 51.90365 -115.14190 20720 ft 412 kts 127°
2026-04-27 20:51 51.88573 -115.10575 20275 ft 410 kts 127°
2026-04-27 20:51 51.86793 -115.06987 19828 ft 408 kts 127°
2026-04-27 20:51 51.85040 -115.03462 19256 ft 400 kts 127°
2026-04-27 20:52 51.83283 -114.99929 18664 ft 403 kts 127°
2026-04-27 20:52 51.81527 -114.96405 18239 ft 402 kts 127°
2026-04-27 20:52 51.79782 -114.92907 17865 ft 396 kts 127°
2026-04-27 20:52 51.78068 -114.89475 17552 ft 390 kts 127°
2026-04-27 20:53 51.76368 -114.86079 17164 ft 388 kts 127°
2026-04-27 20:53 51.74679 -114.82707 16721 ft 386 kts 127°
2026-04-27 20:53 51.72998 -114.79353 16312 ft 383 kts 127°
2026-04-27 20:53 51.71327 -114.76027 15920 ft 380 kts 127°
2026-04-27 20:54 51.67993 -114.69853 15469 ft 341 kts 140°
2026-04-27 20:54 51.66089 -114.67758 15178 ft 322 kts 146°
2026-04-27 20:54 51.64246 -114.65845 14728 ft 310 kts 145°
2026-04-27 20:55 51.62498 -114.63958 14176 ft 303 kts 144°
2026-04-27 20:55 51.60752 -114.62032 13525 ft 299 kts 144°
2026-04-27 20:55 51.59074 -114.60148 12784 ft 296 kts 138°
2026-04-27 20:55 51.57660 -114.57749 12033 ft 299 kts 127°
2026-04-27 20:56 51.56404 -114.55058 11507 ft 302 kts 124°
2026-04-27 20:56 51.55175 -114.52308 11015 ft 304 kts 124°
2026-04-27 20:56 51.53946 -114.49524 10527 ft 307 kts 124°
2026-04-27 20:56 51.52711 -114.46704 10037 ft 309 kts 124°
2026-04-27 20:57 51.51473 -114.43861 9519 ft 310 kts 124°
2026-04-27 20:57 51.50272 -114.41086 8991 ft 294 kts 124°
2026-04-27 20:57 51.49129 -114.38430 8741 ft 285 kts 124°
2026-04-27 20:57 51.48034 -114.35878 8521 ft 277 kts 124°
2026-04-27 20:58 51.46964 -114.33370 8287 ft 269 kts 124°
2026-04-27 20:58 51.45926 -114.30920 8049 ft 262 kts 124°
2026-04-27 20:58 51.44921 -114.28533 7782 ft 254 kts 124°
2026-04-27 20:58 51.43950 -114.26208 7540 ft 246 kts 124°
2026-04-27 20:59 51.43020 -114.23952 7298 ft 239 kts 124°
2026-04-27 20:59 51.42132 -114.21757 7046 ft 231 kts 124°
2026-04-27 20:59 51.41233 -114.19655 6834 ft 226 kts 129°
2026-04-27 20:59 51.40253 -114.17745 6717 ft 219 kts 131°
2026-04-27 21:00 51.39282 -114.15905 6664 ft 215 kts 131°
2026-04-27 21:00 51.38327 -114.14113 6638 ft 212 kts 131°
2026-04-27 21:00 51.37373 -114.12329 6600 ft 209 kts 131°
2026-04-27 21:00 51.36428 -114.10562 6607 ft 209 kts 131°
2026-04-27 21:01 51.35479 -114.08781 6606 ft 210 kts 132°
2026-04-27 21:01 51.34539 -114.06998 6597 ft 210 kts 131°
2026-04-27 21:01 51.33603 -114.05216 6602 ft 208 kts 131°
2026-04-27 21:01 51.32673 -114.03503 6516 ft 198 kts 139°
2026-04-27 21:02 51.31459 -114.02613 6541 ft 194 kts 172°
2026-04-27 21:02 51.30102 -114.02402 6533 ft 197 kts 172°
2026-04-27 21:02 51.28725 -114.02190 6524 ft 199 kts 176°
2026-04-27 21:02 51.27345 -114.02132 6508 ft 196 kts 178°
2026-04-27 21:03 51.25975 -114.02128 6240 ft 195 kts 179°
2026-04-27 21:03 51.24651 -114.02131 5954 ft 184 kts 178°
2026-04-27 21:03 51.23424 -114.02133 5710 ft 171 kts 178°
2026-04-27 21:03 51.22289 -114.02132 5486 ft 160 kts 178°
2026-04-27 21:04 51.21212 -114.02133 5262 ft 147 kts 178°
2026-04-27 21:04 51.20211 -114.02131 5066 ft 144 kts 177°
2026-04-27 21:04 51.19188 -114.02132 4874 ft 149 kts 178°
2026-04-27 21:04 51.18153 -114.02130 4669 ft 148 kts 178°
2026-04-27 21:05 51.17115 -114.02122 4417 ft 148 kts 178°
2026-04-27 21:05 51.16089 -114.02124 4217 ft 145 kts 179°
2026-04-27 21:05 51.15092 -114.02128 3992 ft 144 kts 179°
2026-04-27 21:05 51.14086 -114.02125 3785 ft 144 kts 179°
2026-04-27 21:06 51.13076 -114.02126 3613 ft 145 kts 180°
2026-04-27 21:06 51.12154 -114.02134 3559 ft 116 kts 180°
2026-04-27 21:06 51.11505 -114.02137 3556 ft 71 kts 180°
2026-04-27 21:06 51.11140 -114.02136 3560 ft 35 kts 179°
2026-04-27 21:07 51.10999 -114.02214 3560 ft 21 kts 210°
2026-04-27 21:07 51.10883 -114.02321 3559 ft 16 kts 210°
2026-04-27 21:07 51.10854 -114.02411 3554 ft 8 kts 326°
2026-04-27 21:07 51.10907 -114.02420 3557 ft 8 kts 358°
2026-04-27 21:08 51.11017 -114.02421 3559 ft 20 kts
2026-04-27 21:08 51.11158 -114.02420 3563 ft 20 kts
2026-04-27 21:08 51.11298 -114.02420 3557 ft 20 kts 360°
2026-04-27 21:08 51.11439 -114.02420 3557 ft 20 kts
2026-04-27 21:09 51.11579 -114.02420 3561 ft 20 kts 360°
2026-04-27 21:09 51.11703 -114.02420 3559 ft 17 kts 360°
2026-04-27 21:09 51.11821 -114.02425 3561 ft 17 kts 346°
2026-04-27 21:09 51.11909 -114.02548 3556 ft 17 kts 313°
2026-04-27 21:10 51.11984 -114.02674 3561 ft 11 kts 313°
2026-04-27 21:10 51.12030 -114.02751 3557 ft 5 kts 313°
2026-04-27 21:10 51.12035 -114.02799 3556 ft 5 kts 243°
2026-04-27 21:10 51.12012 -114.02839 3555 ft 5 kts 222°
2026-04-27 21:11 51.11996 -114.02861 3557 ft 1 kts 223°
2026-04-27 21:11 51.11995 -114.02863 3558 ft 0 kts 223°